�N����,����,�~����,�C��,���x,�C��,����,���ϕ���,�ő�u�ԕ���,�ő厞����,���˗�,�I�_���x,�n�����x,�ő啗���N��,DTYPE
"23/05/25","00:10",0.0,14.0,75.4,1012.1,284.6,1.3,1.9,312.8,0.00,9.8,17.3,"00:00:16",1
"23/05/25","00:20",0.0,13.8,76.1,1012.6,293.3,1.6,2.5,328.8,0.00,9.7,17.6,"00:19:40",1
"23/05/25","00:30",0.0,13.6,77.2,1012.3,307.9,2.0,2.7,317.6,0.00,9.7,17.5,"00:26:10",1
"23/05/25","00:40",0.0,13.6,78.0,1012.1,313.2,2.2,3.4,306.6,0.00,9.9,17.7,"00:35:42",1
"23/05/25","00:50",0.0,13.6,78.8,1011.9,328.3,1.8,2.9,328.4,0.00,10.0,17.3,"00:45:08",1
"23/05/25","01:00",0.0,13.4,79.5,1012.1,315.7,2.2,3.1,327.2,0.00,10.0,17.3,"00:56:34",1
"23/05/25","01:10",0.0,13.4,79.6,1012.3,320.0,2.5,3.5,331.6,0.00,10.0,17.3,"01:02:10",1
"23/05/25","01:20",0.0,13.2,80.1,1012.1,327.8,2.1,3.3,337.6,0.00,9.9,17.3,"01:12:46",1
"23/05/25","01:30",0.0,13.1,80.8,1012.1,328.2,2.1,2.9,331.9,0.00,9.9,17.5,"01:22:54",1
"23/05/25","01:40",0.0,13.1,81.3,1012.3,316.2,2.2,3.2,317.2,0.00,10.0,17.2,"01:36:00",1
"23/05/25","01:50",0.0,13.0,81.6,1012.6,294.6,2.1,4.0,317.7,0.00,10.0,17.3,"01:45:36",1
"23/05/25","02:00",0.0,12.9,81.9,1012.6,297.5,1.8,3.4,348.1,0.00,9.9,17.2,"01:58:24",1
"23/05/25","02:10",0.0,13.0,82.4,1012.3,324.7,2.2,3.3,322.3,0.00,10.1,17.1,"02:08:00",1
"23/05/25","02:20",0.0,13.0,82.6,1012.3,305.3,2.3,3.9,322.3,0.00,10.2,17.0,"02:11:00",1
"23/05/25","02:30",0.0,13.0,82.5,1012.3,301.7,2.0,3.2,307.2,0.00,10.1,17.0,"02:22:26",1
"23/05/25","02:40",0.0,12.9,82.6,1012.6,294.7,1.7,2.5,311.9,0.00,10.1,17.2,"02:32:42",1
"23/05/25","02:50",0.0,12.9,82.7,1012.6,290.0,1.5,2.0,314.1,0.00,10.1,17.1,"02:40:50",1
"23/05/25","03:00",0.0,12.8,83.0,1012.8,290.8,1.7,2.4,317.2,0.00,10.0,17.1,"02:54:34",1
"23/05/25","03:10",0.0,12.8,83.2,1012.8,288.8,1.6,2.4,302.6,0.00,10.1,17.2,"03:04:18",1
"23/05/25","03:20",0.0,12.7,83.5,1012.6,302.1,1.3,1.8,314.1,0.00,10.0,16.9,"03:17:58",1
"23/05/25","03:30",0.0,12.7,83.8,1013.0,280.9,1.6,2.0,259.7,0.00,10.1,17.1,"03:26:22",1
"23/05/25","03:40",0.0,12.7,84.0,1012.8,294.8,1.7,2.1,315.0,0.00,10.1,17.1,"03:30:10",1
"23/05/25","03:50",0.0,12.6,84.1,1012.8,291.6,1.8,3.2,313.6,0.00,10.0,17.0,"03:49:34",1
"23/05/25","04:00",0.0,12.6,84.3,1013.0,288.9,1.5,2.4,284.2,0.00,10.1,16.8,"03:53:54",1
"23/05/25","04:10",0.0,12.5,84.5,1013.0,288.6,1.6,2.1,285.0,0.00,10.0,16.9,"04:01:18",1
"23/05/25","04:20",0.0,12.6,84.7,1013.3,308.0,2.2,3.9,313.5,0.00,10.1,17.0,"04:16:06",1
"23/05/25","04:30",0.0,12.7,84.9,1013.3,305.3,2.6,4.0,311.8,0.00,10.3,16.9,"04:22:34",1
"23/05/25","04:40",0.0,12.7,85.1,1013.8,307.2,2.2,3.2,319.1,0.00,10.3,16.9,"04:38:02",1
"23/05/25","04:50",0.0,12.8,85.2,1013.5,316.0,2.3,3.2,324.0,0.00,10.4,17.1,"04:40:08",1
"23/05/25","05:00",0.0,12.8,85.0,1013.5,284.1,1.8,2.9,315.8,0.00,10.4,16.8,"04:50:36",1
"23/05/25","05:10",0.0,12.7,85.1,1014.0,292.3,2.0,2.7,324.9,0.00,10.3,16.8,"05:06:54",1
"23/05/25","05:20",0.0,12.7,85.2,1014.0,303.1,2.3,3.4,320.9,0.00,10.3,16.6,"05:15:00",1
"23/05/25","05:30",0.0,12.8,85.0,1014.2,301.5,2.2,4.3,339.4,0.00,10.4,16.8,"05:25:10",1
"23/05/25","05:40",0.0,12.7,85.0,1014.2,282.5,1.3,1.8,264.9,0.00,10.3,16.6,"05:31:54",1
"23/05/25","05:50",0.0,12.6,85.1,1014.2,291.3,1.6,2.2,312.1,0.00,10.2,16.7,"05:46:46",1
"23/05/25","06:00",0.0,12.6,85.4,1014.2,288.2,1.3,1.8,294.5,0.00,10.3,16.9,"05:57:50",1
"23/05/25","06:10",0.0,12.6,85.7,1014.5,310.3,1.7,2.7,310.2,0.00,10.3,16.8,"06:01:08",1
"23/05/25","06:20",0.0,12.7,86.1,1014.2,294.3,1.5,1.9,298.3,0.00,10.5,16.6,"06:19:10",1
"23/05/25","06:30",0.0,12.7,86.2,1014.9,293.6,1.5,2.2,333.6,0.00,10.5,16.6,"06:26:20",1
"23/05/25","06:40",0.0,12.9,86.2,1014.5,312.1,1.8,2.6,321.7,0.00,10.7,16.4,"06:32:18",1
"23/05/25","06:50",0.0,13.1,86.1,1014.5,314.2,1.3,2.0,323.2,0.00,10.9,16.7,"06:40:34",1
"23/05/25","07:00",0.0,13.2,86.0,1014.7,292.5,1.3,1.9,334.3,0.01,11.0,16.4,"06:56:50",1
"23/05/25","07:10",0.0,13.4,85.8,1014.9,327.7,1.2,1.9,310.5,0.01,11.1,16.5,"07:02:50",1
"23/05/25","07:20",0.0,13.5,85.6,1014.7,289.8,1.5,2.4,308.8,0.01,11.2,16.6,"07:18:20",1
"23/05/25","07:30",0.0,13.7,85.4,1014.9,291.7,1.1,2.0,309.8,0.02,11.3,16.4,"07:24:18",1
"23/05/25","07:40",0.0,14.0,85.2,1014.9,262.6,1.0,1.4,296.5,0.02,11.6,16.6,"07:39:30",1
"23/05/25","07:50",0.0,14.2,84.9,1015.4,309.5,1.5,1.6,302.4,0.03,11.7,16.6,"07:49:20",1
"23/05/25","08:00",0.0,14.5,84.9,1015.4,269.4,0.8,1.7,313.0,0.04,12.0,16.7,"07:56:04",1
"23/05/25","08:10",0.0,14.7,84.9,1015.4,296.1,1.2,2.1,329.0,0.06,12.2,16.5,"08:01:04",1
"23/05/25","08:20",0.0,15.2,84.5,1015.6,272.9,1.1,1.7,257.3,0.08,12.6,16.7,"08:11:50",1
"23/05/25","08:30",0.0,15.6,83.0,1015.4,326.6,1.6,2.4,326.2,0.11,12.8,16.6,"08:28:00",1
"23/05/25","08:40",0.0,16.6,81.1,1015.4,286.7,1.0,1.6,319.8,0.21,13.4,16.6,"08:30:24",1
"23/05/25","08:50",0.0,17.3,76.6,1015.2,245.7,1.1,1.9,238.9,0.17,13.2,16.7,"08:46:48",1
"23/05/25","09:00",0.0,18.0,73.2,1015.4,255.8,0.5,1.2,255.3,0.17,13.2,16.6,"08:50:08",1
"23/05/25","09:10",0.0,18.2,69.7,1015.4,336.9,0.8,1.7,354.1,0.13,12.6,16.6,"09:09:20",1
"23/05/25","09:20",0.0,18.5,67.9,1015.2,323.2,1.0,1.6,339.7,0.12,12.5,16.7,"09:18:56",1
"23/05/25","09:30",0.0,18.7,66.9,1014.9,331.0,0.8,2.0,336.6,0.16,12.5,16.7,"09:29:20",1
"23/05/25","09:40",0.0,18.9,67.1,1014.9,294.0,1.2,1.7,329.3,0.16,12.7,16.6,"09:33:44",1
"23/05/25","09:50",0.0,19.7,66.7,1014.5,277.0,0.8,1.8,339.7,0.31,13.4,16.7,"09:49:12",1
"23/05/25","10:00",0.0,20.6,64.1,1014.7,249.6,1.1,3.1,225.8,0.38,13.6,17.0,"09:58:48",1
"23/05/25","10:10",0.0,21.3,63.0,1014.5,346.4,0.8,2.4,239.8,0.35,14.0,16.8,"10:00:16",1
"23/05/25","10:20",0.0,22.1,61.6,1014.2,249.3,1.0,3.3,346.6,0.44,14.4,16.9,"10:15:04",1
"23/05/25","10:30",0.0,21.7,61.0,1014.2,77.6,1.1,3.1,126.7,0.28,13.9,16.9,"10:26:48",1
"23/05/25","10:40",0.0,22.9,61.4,1013.5,90.5,1.1,3.4,125.7,0.52,15.1,17.0,"10:39:20",1
"23/05/25","10:50",0.0,23.4,58.4,1013.8,116.8,1.3,3.1,179.2,0.53,14.8,17.1,"10:46:00",1
"23/05/25","11:00",0.0,22.6,60.5,1013.8,160.3,1.6,3.1,168.7,0.32,14.6,17.0,"10:59:36",1
"23/05/25","11:10",0.0,22.3,62.0,1013.5,170.5,1.6,3.7,198.8,0.25,14.7,17.2,"11:04:56",1
"23/05/25","11:20",0.0,23.0,61.2,1013.8,140.8,1.3,2.7,152.2,0.42,15.2,17.3,"11:12:48",1
"23/05/25","11:30",0.0,23.2,61.6,1013.8,140.9,1.7,3.6,159.4,0.44,15.5,17.2,"11:25:52",1
"23/05/25","11:40",0.0,24.0,62.8,1013.5,159.1,1.7,3.5,140.5,0.56,16.5,17.5,"11:36:40",1
"23/05/25","11:50",0.0,24.2,59.9,1013.0,137.7,1.3,2.9,191.7,0.41,16.0,17.6,"11:40:24",1
"23/05/25","12:00",0.0,24.5,61.1,1012.8,132.6,1.0,3.3,83.6,0.44,16.6,17.6,"11:58:48",1
"23/05/25","12:10",0.0,24.7,58.7,1012.8,125.4,1.7,4.0,110.5,0.53,16.1,17.7,"12:08:16",1
"23/05/25","12:20",0.0,24.4,57.3,1012.6,124.7,1.3,2.8,109.8,0.38,15.5,17.7,"12:10:08",1
"23/05/25","12:30",0.0,23.6,59.4,1012.6,132.8,1.6,3.7,115.9,0.23,15.3,18.0,"12:26:24",1
"23/05/25","12:40",0.0,23.1,60.6,1013.3,116.7,1.2,3.2,110.1,0.13,15.1,18.0,"12:34:00",1
"23/05/25","12:50",0.0,23.1,62.5,1013.3,120.8,1.1,3.1,116.5,0.16,15.6,18.0,"12:40:32",1
"23/05/25","13:00",0.0,23.7,61.8,1013.5,188.9,1.0,2.7,138.9,0.18,16.0,18.1,"12:59:12",1
"23/05/25","13:10",0.0,23.2,61.3,1013.0,126.8,1.5,3.7,122.1,0.15,15.4,18.0,"13:04:24",1
"23/05/25","13:20",0.0,23.7,61.8,1013.3,118.8,1.7,3.4,122.3,0.31,16.0,18.1,"13:11:36",1
"23/05/25","13:30",0.0,25.0,57.7,1013.0,85.5,1.6,4.9,125.5,0.63,16.1,18.1,"13:26:40",1
"23/05/25","13:40",0.0,24.9,56.7,1013.0,106.9,1.2,3.4,132.3,0.36,15.8,18.3,"13:32:56",1
"23/05/25","13:50",0.0,25.7,56.4,1012.8,145.3,1.5,3.4,200.2,0.59,16.4,18.1,"13:48:32",1
"23/05/25","14:00",0.0,25.4,53.5,1012.3,104.5,1.8,6.0,201.0,0.52,15.3,18.3,"13:54:16",1
"23/05/25","14:10",0.0,25.2,55.7,1012.3,148.2,1.8,4.5,193.7,0.38,15.8,18.3,"14:01:28",1
"23/05/25","14:20",0.0,25.8,55.0,1012.6,43.1,1.2,3.9,178.7,0.39,16.1,18.5,"14:19:44",1
"23/05/25","14:30",0.0,25.9,53.3,1012.6,92.1,0.8,3.4,159.6,0.36,15.7,18.5,"14:20:24",1
"23/05/25","14:40",0.0,27.0,53.4,1012.6,11.0,1.2,3.1,12.8,0.55,16.8,18.7,"14:32:48",1
"23/05/25","14:50",0.0,25.9,54.0,1012.6,128.1,2.0,4.9,115.0,0.34,15.9,18.5,"14:48:32",1
"23/05/25","15:00",0.0,24.6,55.8,1011.9,114.4,2.5,4.8,130.0,0.21,15.2,18.7,"14:55:20",1
"23/05/25","15:10",0.0,23.9,58.6,1012.6,47.6,1.6,3.6,84.9,0.11,15.3,18.7,"15:02:32",1
"23/05/25","15:20",0.0,24.7,58.2,1012.3,54.0,1.3,3.2,40.4,0.36,16.0,18.7,"15:13:36",1
"23/05/25","15:30",0.0,25.9,56.8,1012.1,38.8,1.5,3.9,7.8,0.45,16.7,18.8,"15:22:24",1
"23/05/25","15:40",0.0,24.7,56.6,1011.9,28.9,1.6,3.6,47.9,0.11,15.5,19.0,"15:32:56",1
"23/05/25","15:50",0.0,24.0,58.9,1012.1,32.3,1.6,3.4,16.3,0.07,15.5,18.9,"15:47:12",1
"23/05/25","16:00",0.0,24.3,59.3,1012.1,50.4,1.0,2.8,49.5,0.13,15.9,19.1,"15:55:12",1
"23/05/25","16:10",0.0,24.6,59.6,1012.3,48.6,1.0,2.8,106.8,0.14,16.3,19.1,"16:07:28",1
"23/05/25","16:20",0.6,23.5,64.5,1012.1,94.9,1.6,3.9,110.2,0.06,16.5,19.1,"16:16:00",1
"23/05/25","16:30",1.0,21.9,70.1,1011.9,63.7,1.3,4.2,32.8,0.04,16.2,19.2,"16:28:40",1
"23/05/25","16:40",0.0,20.8,75.5,1012.3,1.3,2.0,4.9,20.7,0.00,16.4,19.2,"16:32:00",1
"23/05/25","16:50",0.0,20.1,80.5,1012.8,353.9,1.8,3.5,6.4,0.00,16.7,19.2,"16:41:12",1
"23/05/25","17:00",0.0,20.1,82.5,1013.0,246.5,1.2,4.3,212.8,0.00,17.1,19.0,"16:58:08",1
"23/05/25","17:10",0.2,19.6,84.5,1013.3,287.5,2.5,5.5,249.7,0.01,17.0,19.1,"17:01:12",1
"23/05/25","17:20",0.4,18.9,86.1,1013.5,323.9,3.2,5.0,341.7,0.00,16.6,19.1,"17:12:08",1
"23/05/25","17:30",0.4,18.7,87.6,1014.0,332.7,2.5,4.2,307.1,0.00,16.6,19.2,"17:20:48",1
"23/05/25","17:40",0.0,18.7,88.6,1014.2,353.8,1.8,4.5,328.8,0.00,16.8,19.1,"17:32:16",1
"23/05/25","17:50",0.2,18.7,89.4,1014.0,356.0,1.5,2.8,37.2,0.02,17.0,19.2,"17:42:00",1
"23/05/25","18:00",3.6,18.7,89.8,1014.5,249.5,1.3,2.4,241.1,0.01,17.0,19.0,"17:52:48",1
"23/05/25","18:10",1.8,18.6,90.3,1014.2,314.9,1.2,1.7,320.6,0.00,17.0,19.0,"18:05:30",1
"23/05/25","18:20",0.2,18.7,90.9,1014.7,338.6,1.2,2.1,355.0,0.01,17.2,18.9,"18:14:00",1
"23/05/25","18:30",0.2,18.6,91.3,1014.7,324.0,0.8,1.6,333.6,0.00,17.2,18.9,"18:20:48",1
"23/05/25","18:40",0.0,18.5,91.7,1014.9,342.0,1.1,2.0,341.4,0.00,17.2,18.9,"18:37:46",1
"23/05/25","18:50",0.0,18.4,92.1,1014.7,331.7,1.3,2.5,335.9,0.00,17.1,18.9,"18:44:50",1
"23/05/25","19:00",0.0,18.2,92.5,1014.9,304.7,1.6,2.5,329.5,0.00,17.0,19.0,"18:57:54",1
"23/05/25","19:10",0.0,18.2,92.9,1015.2,327.3,1.8,3.2,321.6,0.00,17.1,18.8,"19:07:18",1
"23/05/25","19:20",0.0,18.2,93.1,1015.6,331.4,1.1,2.2,330.5,0.00,17.1,18.7,"19:10:40",1
"23/05/25","19:30",0.0,18.3,93.3,1015.4,297.1,1.1,1.9,318.9,0.00,17.2,18.8,"19:21:36",1
"23/05/25","19:40",0.0,18.2,93.5,1015.4,278.4,1.0,1.8,258.8,0.00,17.2,18.9,"19:31:36",1
"23/05/25","19:50",0.0,18.1,93.7,1015.9,288.6,1.1,1.6,263.0,0.00,17.1,18.9,"19:40:16",1
"23/05/25","20:00",0.2,17.9,94.0,1016.1,290.2,1.3,1.9,309.9,0.00,17.0,18.7,"19:50:48",1
"23/05/25","20:10",0.0,17.9,94.1,1016.1,306.0,1.2,2.0,341.6,0.00,17.0,18.5,"20:05:10",1
"23/05/25","20:20",0.0,17.8,94.2,1016.1,291.4,1.0,1.6,308.7,0.00,16.9,18.7,"20:19:24",1
"23/05/25","20:30",0.0,17.7,94.5,1016.4,316.5,1.6,2.0,330.9,0.00,16.8,18.7,"20:22:58",1
"23/05/25","20:40",0.0,17.6,94.6,1016.1,297.1,1.5,2.2,329.7,0.00,16.8,18.7,"20:31:46",1
"23/05/25","20:50",0.0,17.5,94.7,1016.6,290.9,1.2,1.9,282.2,0.00,16.7,18.7,"20:48:18",1
"23/05/25","21:00",0.0,17.2,94.9,1016.6,297.2,1.6,2.8,314.7,0.00,16.4,18.7,"20:56:04",1
"23/05/25","21:10",0.0,17.2,95.0,1016.6,331.9,1.2,2.1,337.9,0.00,16.4,18.7,"21:09:48",1
"23/05/25","21:20",0.0,16.9,95.1,1016.8,305.9,1.2,1.7,320.1,0.00,16.2,18.5,"21:12:08",1
"23/05/25","21:30",0.0,16.7,95.3,1016.8,283.8,1.2,1.9,301.8,0.00,16.0,18.6,"21:22:08",1
"23/05/25","21:40",0.0,16.5,95.4,1016.8,300.8,1.3,2.2,306.6,0.00,15.8,18.6,"21:32:48",1
"23/05/25","21:50",0.0,16.4,95.6,1017.3,312.2,1.5,2.5,321.8,0.00,15.7,18.7,"21:49:52",1
"23/05/25","22:00",0.0,16.2,95.7,1017.5,310.4,1.7,3.1,337.3,0.00,15.6,18.7,"21:50:32",1
"23/05/25","22:10",0.0,16.0,95.8,1017.5,293.5,1.2,2.0,315.6,0.00,15.4,18.7,"22:01:36",1
"23/05/25","22:20",0.0,16.0,96.0,1017.8,307.2,1.5,2.6,316.3,0.00,15.4,18.6,"22:17:04",1
"23/05/25","22:30",0.0,15.8,96.1,1017.5,280.7,1.1,2.2,310.2,0.00,15.2,18.3,"22:29:00",1
"23/05/25","22:40",0.0,15.6,96.1,1017.5,310.4,1.3,2.2,330.7,0.00,15.0,18.5,"22:35:08",1
"23/05/25","22:50",0.0,15.5,96.2,1017.8,303.0,1.2,2.1,314.1,0.00,14.9,18.4,"22:41:36",1
"23/05/25","23:00",0.0,15.4,96.3,1017.8,307.5,1.3,2.7,327.1,0.00,14.9,18.2,"22:55:40",1
"23/05/25","23:10",0.0,15.3,96.4,1017.8,304.6,1.3,1.9,334.7,0.00,14.8,18.3,"23:03:50",1
"23/05/25","23:20",0.0,15.1,96.5,1017.3,308.6,1.2,1.4,315.8,0.00,14.6,18.4,"23:11:14",1
"23/05/25","23:30",0.0,15.1,96.6,1017.5,277.3,1.2,1.7,269.8,0.00,14.6,18.2,"23:28:28",1
"23/05/25","23:40",0.0,15.1,96.7,1017.5,297.2,1.5,2.0,335.9,0.00,14.6,18.2,"23:39:56",1
"23/05/25","23:50",0.0,15.1,96.7,1017.3,310.6,1.3,2.1,343.3,0.00,14.6,18.2,"23:40:16",1
"23/05/25","24:00",0.0,15.0,96.8,1017.3,288.8,1.1,1.7,324.4,0.00,14.5,18.2,"23:52:20",1
